ECHOSTAR 21

Last updated on Wed Sep 23 2026 00:03:33 GMT+0000 (Coordinated Universal Time)

1 42749U 17032A 26265.56027819 .00000065 00000+0 00000+0 0 9997 2 42749 1.7840 1.8814 0002557 187.9878 23.5637 1.00274999 34078
UTC large
Height (km)
Speed (km/s)
/
Latitude / Longitude
Inclination (degrees)
Orbital Period (minutes)
Azimuth
Elevation
Range (km)
Doppler Factor

Next 0 passes for location: London (51.5072 / 0.1276)

No passes found over London.
ECHOSTAR 21